Flag for Belarus Weather past 2 weeks in Barysaw, Belarus

Now
54 °F

Sunny.


Feels Like: 54 °F
Forecast: 49 / 68 °F
Wind: No wind

Location: Minsk

Current Time: Aug 21, 2014 at 7:58:44 AM

Latest Report: Aug 21, 2014 at 7:30 AM


Visibility: 10 mi

Pressure: 30.01 "Hg

Humidity: 82%

Dew point: 48 °F

Location of BarysawLocation

Historic Weather in Barysaw — Graph

°F

Barysaw temperature yesterday

Maximum temperature yesterday: 73 °F (at 1:00 PM)
Minimum temperature yesterday: 57 °F (at 3:30 AM)
Average temperature yesterday: 65 °F

Past Weeks' High & Low Weather Summary

 TemperatureHumidityPressure
High88 °F (Aug 11, 3:30 PM)100% (Aug 10, 3:00 AM)30.01 "Hg (Aug 10, 3:00 AM)
Low46 °F (Aug 18, 5:30 AM)27% (Aug 6, 3:00 PM)29.65 "Hg (Aug 14, 8:00 AM)
Average67 °F71%29.88 "Hg
* Reported Aug 6 6:00 AM — Aug 21 6:30 AM, Barysaw, Weather by CustomWeather, © 2014

Note: Actual official high and low records may vary slightly from our data, if they occured in-between our weather recording intervals... More about our weather records

Advertising

Barysaw weather history for previous 24 hours

 ConditionsComfort  
Time TempWeatherWind HumidityBarometerVisibility
6:30 AM
Aug 21
46 °FClear.No wind93%30.01 "Hg10 mi
6:00 AM46 °FClear.No wind100%30.01 "Hg10 mi
5:30 AM46 °FClear.No wind93%30.01 "Hg10 mi
5:00 AM48 °FClear.1 mph94%30.01 "Hg10 mi
4:30 AM50 °FClear.1 mph88%29.98 "Hg10 mi
4:00 AM50 °FClear.1 mph94%29.98 "Hg10 mi
3:30 AM50 °FClear.No wind94%29.98 "Hg10 mi
2:30 AM54 °FClear.No wind88%29.98 "Hg10 mi
2:00 AM54 °FClear.No wind88%29.98 "Hg10 mi
1:30 AM57 °FClear.No wind77%29.98 "Hg10 mi
1:00 AM61 °FClear.3 mph63%29.95 "Hg10 mi
12:30 AM61 °FPassing clouds.6 mph68%29.95 "HgN/A
11:30 PM
Aug 20
61 °FPartly cloudy.3 mph72%29.95 "HgN/A
11:00 PM63 °FPartly cloudy.3 mph73%29.95 "HgN/A
10:30 PM64 °FPartly cloudy.6 mph64%29.92 "HgN/A
10:00 PM66 °FPartly cloudy.6 mph68%29.92 "HgN/A
9:30 PM66 °FPartly cloudy.6 mph68%29.92 "HgN/A
9:00 PM66 °FBroken clouds.6 mph68%29.89 "HgN/A
8:30 PM64 °FBroken clouds.3 mph73%29.89 "HgN/A
8:00 PM66 °FSunny.1 mph68%29.89 "Hg10 mi
7:30 PM70 °FPassing clouds.3 mph57%29.89 "HgN/A
7:00 PM72 °FBroken clouds.6 mph53%29.89 "HgN/A
6:30 PM73 °FBroken clouds.3 mph50%29.89 "HgN/A
6:00 PM73 °FBroken clouds.6 mph50%29.89 "HgN/A
5:30 PM73 °FBroken clouds.6 mph50%29.89 "HgN/A
5:00 PM72 °FScattered clouds.3 mph57%29.89 "HgN/A
4:30 PM72 °FBroken clouds.6 mph53%29.89 "HgN/A
4:00 PM70 °FBroken clouds.3 mph57%29.89 "HgN/A
3:30 PM70 °FBroken clouds.3 mph57%29.89 "HgN/A
3:00 PM70 °FBroken clouds.6 mph57%29.92 "HgN/A
2:30 PM70 °FBroken clouds.3 mph57%29.92 "HgN/A
2:00 PM70 °FBroken clouds.3 mph57%29.92 "HgN/A
1:30 PM72 °FBroken clouds.3 mph57%29.92 "HgN/A
1:00 PM73 °FBroken clouds.6 mph50%29.89 "HgN/A
12:30 PM70 °FBroken clouds.3 mph60%29.92 "HgN/A
12:00 PM72 °FBroken clouds.6 mph57%29.92 "HgN/A
11:30 AM70 °FPassing clouds.6 mph60%29.92 "HgN/A
11:00 AM70 °FPassing clouds.6 mph60%29.92 "HgN/A
10:30 AM68 °FPassing clouds.3 mph64%29.92 "HgN/A
10:00 AM66 °FSunny.No wind68%29.92 "Hg10 mi
9:30 AM61 °FSunny.No wind94%29.92 "Hg10 mi
9:00 AM59 °FSunny.No wind94%29.92 "Hg10 mi
8:30 AM59 °FPassing clouds.3 mph94%29.95 "HgN/A
8:00 AM59 °FSunny.1 mph94%29.95 "Hg10 mi
7:30 AM59 °FSunny.No wind94%29.92 "Hg10 mi
7:00 AM57 °FSprinkles. Broken clouds.6 mph100%29.92 "Hg6 mi
Weather by CustomWeather, © 2014

See weather overviewHow to use our weather pages